Regional Weather Roundup
Issued by NWS Sioux Falls, SD

Home | Current Version | Previous Version | Text Only | Print | Product List | Glossary On
Versions: 1 2 3 4 5 6 7 8 9 10 11 12 13 14 15 16 17 18 19 20 21 22 23 24 25 26 27 28 29 30 31 32 33 34 35 36 37 38 39 40 41 42 43 44 45 46 47 48 49 50
000
ASUS43 KFSD 250710
RWRFSD

WEATHER ROUNDUP FOR SE SOUTH DAKOTA/SW MINNESOTA/NW IOWA
NATIONAL WEATHER SERVICE SIOUX FALLS SD
200 AM CDT SUN SEP 25 2016

NOTE: "FAIR" INDICATES FEW OR NO CLOUDS BELOW 12,000 FEET WITH NO
SIGNIFICANT WEATHER AND OR OBSTRUCTIONS TO VISIBILITY.


SDZ038>040-050-052>070-250800-
SOUTHEAST SOUTH DAKOTA

CITY           SKY/WX    TMP DP  RH WIND       PRES   REMARKS
BROOKINGS      CLOUDY    57  48  72 NW14      29.93R
CHAMBERLAIN    CLEAR     56  45  65 W20G26    29.98S
HURON          PTCLDY    53  42  66 SW6       29.92R
MADISON        FAIR      55  54  94 W14G20    29.95R
MITCHELL       CLEAR     55  43  63 W5        29.96R
SIOUX FALLS    CLOUDY    61  50  67 W10       29.94R
WINNER         FAIR      56  42  59 W15       30.02R
YANKTON        CLEAR     57  48  72 W9        29.97R
$$

MNZ071-072-080-081-089-090-097-098-250800-
SOUTHWEST MINNESOTA

CITY           SKY/WX    TMP DP  RH WIND       PRES   REMARKS
FAIRMONT       CLOUDY    67  65  93 S12       29.95S
JACKSON        CLOUDY    68  64  88 S9        29.95S
LUVERNE        CLOUDY    68  64  88 S8        29.92R FOG
MARSHALL       MOCLDY    68  65  90 S9        29.88S
MONTEVIDEO     LGT RAIN  66  66 100 SW6       29.86F
PIPESTONE        N/A     70  68  94 SW13G18   29.92R
REDWOOD FALLS  CLOUDY    69  66  90 S13       29.88F
TRACY          CLOUDY    68  67  98 S7        29.90F
WINDOM         CLOUDY    70  66  88 S12G17    29.93R
WORTHINGTON    LGT RAIN  67  66  97 S7        29.94F
$$

IAZ001>003-012>014-020>022-031-032-NEZ013-014-SDZ071-250800-
NORTHWEST IOWA

CITY           SKY/WX    TMP DP  RH WIND       PRES   REMARKS
CHEROKEE       RAIN      68  68  99 S9        29.95S
DENISON        CLOUDY    68  66  94 SE9       29.93F FOG
ESTHERVILLE    CLOUDY    66  66 100 S10       29.95S
LE MARS        CLOUDY    68  66  94 S6        29.94S
ORANGE CITY    LGT RAIN  64  63  94 S6        29.94R
SHELDON        LGT RAIN  66  66 100 SE6       29.92S
SIOUX CITY     CLOUDY    69  68  96 S5        29.94R
SPENCER        CLOUDY    68  67  96 S12       29.94S
STORM LAKE     CLOUDY    66  66 100 S7        29.97R
$$

ABBREVIATIONS USED IN REMARKS
   TC - TEMPERATURE IN CELSIUS
  WCI - WIND CHILL INDEX
   HX - HEAT INDEX
  VSB - VISIBILITY





USA.gov is the U.S. government's official web portal to all federal, state and local government web resources and services.